GFSNIL_con_mlcape_198.txt.gz
CAPE
1107 708 262 86 172 354 844 1056 1363 1114 1051 967 732 344 113 58 2 0 0 0 0 0
1024 735 410 194 8 573 783 1259 1207 953 784 714 398 96 36 1 0 0 0 0 0 0
962 755 451 169 65 172 626 1228 1087 814 515 218 35 19 0 0 0 0 0 0 0 0
1089 635 446 206 46 36 3 580 741 527 184 36 23 2 0 0 0 0 0 0 0 0
1086 758 315 241 281 333 581 819 577 214 35 0 0 0 0 0 0 0 0 0 0 0
1007 883 597 473 430 481 575 684 373 77 5 0 0 0 0 0 0 0 0 0 0 0
875 847 903 550 501 499 501 477 184 52 0 0 0 0 0 0 0 0 0 0 0 0
781 728 691 358 344 295 356 266 121 64 0 0 0 0 0 0 0 0 0 0 0 0
910 799 388 260 237 284 87 82 72 3 0 0 0 0 0 0 0 0 0 0 0 0
862 837 314 122 223 210 85 49 0 0 0 0 0 0 0 0 0 0 0 0 0 0
729 640 558 219 113 141 37 0 0 0 0 0 0 0 0 0 0 0 0 0 0 0
962 707 383 223 73 47 13 0 0 0 0 0 0 0 0 0 0 0 0 0 0 0
637 548 174 22 66 19 1 0 0 0 0 0 0 0 0 0 0 0 0 0 0 0
512 350 101 24 8 14 3 2 0 5 0 0 0 0 0 0 0 0 0 0 0 0

GFSNIL_con_mlcape_201.txt.gz
CAPE
719 575 704 334 281 123 23 98 422 822 914 876 717 681 547 331 110 0 0 0 0 0
610 532 458 456 313 139 132 46 250 761 848 833 653 530 269 106 9 0 0 0 0 0
562 505 506 316 244 160 115 142 604 755 947 664 425 190 37 7 0 0 0 0 0 0
755 568 605 331 174 197 123 111 555 570 625 521 248 31 0 0 0 0 0 0 0 0
772 686 562 374 79 15 196 307 420 429 377 197 58 4 0 0 0 0 0 0 0 0
327 633 611 380 36 40 40 293 321 239 164 38 0 0 0 0 0 0 0 0 0 0
377 572 494 427 110 120 24 44 202 124 55 7 0 0 0 0 0 0 0 0 0 0
115 259 523 352 293 113 374 225 202 90 0 0 0 0 0 0 0 0 0 0 0 0
42 97 223 383 324 105 221 313 184 9 0 0 0 0 0 0 0 0 0 0 0 0
202 53 274 280 332 278 330 304 132 13 0 0 0 0 0 0 0 0 0 0 0 0
138 8 151 255 207 270 258 193 113 7 0 0 0 0 0 0 0 0 0 0 0 0
84 0 0 248 189 245 231 98 36 0 0 0 0 0 0 0 0 0 0 0 0 0
121 0 3 251 174 277 179 58 0 0 0 0 0 0 0 0 0 0 0 0 0 0
238 402 307 401 282 307 158 11 1 0 0 0 0 0 0 0 0 0 0 0 0 0

GFSNIL_con_mlcape_207.txt.gz
CAPE
0 2 94 300 443 363 96 161 253 329 278 241 166 55 106 168 271 201 119 56 0 0
0 0 8 127 425 472 280 332 267 351 217 215 272 233 224 135 207 176 181 111 0 0
0 17 131 283 338 536 580 381 311 301 299 268 268 266 250 183 189 152 184 30 0 0
0 8 246 192 300 494 617 510 374 340 347 305 275 237 171 154 130 56 48 0 0 0
0 16 38 61 117 336 572 642 444 388 419 371 274 114 119 86 81 13 0 0 0 0
0 0 0 0 72 308 566 686 584 387 447 389 165 44 13 25 9 0 0 0 0 0
0 0 0 0 0 311 555 716 595 468 416 281 106 36 6 0 0 0 0 0 0 0
0 0 0 0 0 191 414 669 549 459 266 100 50 4 1 1 0 0 0 0 0 0
0 0 0 0 0 74 291 512 620 405 301 88 20 0 0 13 5 0 0 0 0 0
0 0 0 0 0 24 298 350 411 362 307 74 43 0 0 0 0 0 0 0 0 0
0 0 0 0 0 12 217 309 353 313 221 84 18 0 0 0 0 0 0 0 0 0
0 0 0 0 0 3 147 238 286 118 124 7 0 0 0 0 0 0 0 0 0 0
0 0 0 0 0 1 28 104 166 47 2 4 0 0 0 0 1 0 0 0 0 0
0 0 0 0 0 2 20 65 12 47 18 0 0 0 0 1 1 0 0 0 0 0

GFSNIL_con_mlcape_210.txt.gz
CAPE
0 0 0 0 0 59 144 227 349 194 97 267 265 314 213 141 103 66 98 96 54 14
0 0 0 0 19 75 280 260 442 442 253 297 279 346 254 176 38 24 46 71 85 20
0 0 0 0 134 210 318 413 497 549 421 392 340 319 262 118 32 14 9 42 32 2
0 0 0 0 15 70 151 232 368 569 625 465 340 313 346 285 152 61 57 3 60 28
0 0 0 0 0 0 0 71 247 400 643 578 433 300 271 316 275 157 74 14 17 3
0 0 0 0 0 0 0 0 150 403 478 604 489 405 345 270 264 103 42 1 16 0
0 0 0 0 0 0 0 0 3 268 528 579 586 529 470 306 188 66 7 0 0 0
0 0 0 0 0 0 0 0 0 160 544 652 546 465 455 244 82 6 0 0 0 0
0 0 0 0 0 0 0 0 0 112 429 599 549 422 365 292 23 1 0 0 0 0
0 0 0 0 0 0 0 0 0 58 395 547 535 317 190 74 1 0 0 0 0 0
0 0 0 0 0 0 0 0 0 85 351 445 509 156 52 1 2 0 0 0 0 0
0 0 0 0 0 0 0 0 0 87 331 457 490 73 9 7 0 0 0 0 0 0
0 0 0 0 0 0 0 0 0 28 378 420 321 0 0 0 1 1 0 0 0 0
0 0 0 0 0 0 0 0 0 66 256 7 4 1 0 0 1 0 0 0 0 0

GFSNIL_con_mlcape_216.txt.gz
CAPE
471 113 71 188 55 8 5 49 238 712 928 1077 1170 1247 1199 941 779 892 942 1005 688 633
181 24 0 41 56 0 4 0 42 315 687 965 1030 1086 1112 937 741 752 923 1014 1048 653
22 20 11 50 26 0 0 0 22 141 402 751 917 994 962 811 822 845 815 911 903 859
0 0 18 23 0 0 0 0 0 0 11 173 521 768 743 760 811 551 882 875 833 769
0 0 0 0 0 0 0 0 0 0 0 0 48 411 632 648 874 536 524 612 603 744
0 0 0 0 0 0 0 0 0 0 0 0 0 11 247 429 513 783 546 567 481 557
0 0 0 0 0 0 0 0 0 0 0 0 0 0 4 154 277 446 551 570 569 556
0 4 3 6 0 0 0 0 0 0 0 0 0 0 0 40 153 313 441 557 524 589
0 0 0 0 0 0 0 0 0 0 0 0 0 0 0 0 150 288 419 545 529 557
0 0 0 0 0 0 0 0 0 0 0 0 0 0 0 0 2 200 299 510 568 512
0 0 0 0 0 0 0 0 0 0 0 0 0 0 0 0 0 148 146 325 440 534
0 0 0 0 0 5 8 11 5 5 1 0 0 0 0 0 1 32 204 258 592 625
1 4 6 14 30 31 26 21 13 4 3 0 0 0 0 0 0 84 383 645 567 466
17 27 19 17 16 18 19 22 17 10 7 3 0 0 0 0 0 24 408 383 64 3

GFSNIL_con_mlcape_219.txt.gz
CAPE
983 731 480 511 51 27 0 0 28 409 748 945 1010 1106 1349 1144 1101 998 946 1240 1198 684
745 620 118 283 596 75 13 7 7 69 201 471 678 940 1184 919 935 1003 914 874 1111 1159
541 499 291 398 327 32 75 91 9 6 28 67 182 498 931 742 794 838 924 849 835 908
260 364 291 238 245 149 122 69 14 1 0 0 5 128 541 733 664 861 813 856 875 786
195 158 253 251 197 93 13 15 0 0 0 0 0 0 25 263 369 500 711 653 684 859
249 211 235 283 277 86 0 0 0 0 0 0 0 0 0 0 71 306 593 645 672 680
151 149 151 164 188 110 9 0 0 0 0 0 0 0 0 0 0 63 237 675 627 644
24 15 69 129 65 66 61 38 9 0 0 0 0 0 0 0 0 0 177 361 584 621
46 38 77 155 100 130 84 40 55 0 0 0 0 0 0 0 0 0 6 285 409 609
2 1 6 9 10 26 40 110 159 150 58 31 3 0 0 0 0 0 0 74 443 439
0 0 0 0 0 0 35 70 146 201 133 53 24 0 0 0 0 0 0 0 182 453
0 0 0 0 0 0 1 17 46 32 17 19 14 1 0 0 0 0 0 0 95 387
0 0 0 0 1 5 0 1 9 15 30 23 14 17 4 0 0 0 0 0 62 178
6 6 15 12 36 63 36 38 36 28 26 30 37 27 4 0 0 0 0 0 1 173

GFSNIL_con_mlcape_222.txt.gz
CAPE
2723 2194 1903 1234 791 305 83 94 220 404 709 907 984 1113 1305 1268 1267 1240 1208 1117 1063 854
1596 1284 817 772 446 332 139 16 13 46 125 341 586 655 816 1076 1005 1128 1060 1057 1028 973
1299 1148 952 1138 680 303 92 2 43 19 20 65 130 227 416 633 932 877 812 913 886 1083
907 927 762 759 564 395 242 214 93 20 0 0 13 58 123 204 583 469 533 659 862 854
440 708 697 589 543 500 349 237 117 38 0 0 0 0 0 3 37 145 509 621 550 896
423 482 642 651 618 559 388 229 124 27 0 0 0 0 0 0 0 0 0 141 526 785
455 553 550 719 591 566 416 217 61 0 0 0 0 0 0 0 0 0 0 0 106 572
172 935 727 604 553 585 499 299 148 38 15 9 4 0 0 0 0 0 0 6 92 289
2 152 133 222 270 360 420 366 309 208 157 88 28 0 0 0 0 0 0 0 0 0
4 4 21 51 202 321 305 298 275 210 165 129 121 56 0 0 0 0 0 0 0 0
0 0 5 14 37 58 108 127 113 94 111 146 181 160 62 0 0 0 0 0 0 0
0 0 1 3 21 40 63 37 36 38 71 81 105 157 37 0 0 0 0 0 0 0
0 2 2 0 0 0 4 16 22 14 15 25 56 59 10 0 0 0 0 0 0 0
0 0 0 0 0 2 8 4 11 29 25 29 43 78 32 16 7 0 0 0 0 0